When you browse on this site, cookies collect data to enhance your experience and personalize the content and advertising you see.
Visit our Privacy Policy to learn more. By continuing to use the site, you agree to this use of cookies and data.
  • In Sweden
  • List of Countries
  • For 7 days
  • Water Temperature
  • Satellite Maps
  • Weather Map
  • Weather Widgets
  • user-avatar
    Login

    Hourly Weather Palkino

    Today, 19 February, Tuesday

    Time Temperature Precipitation Wind Pressure Humidity
    00:00 -8°C° 0 mm 2 mps 747 mmHg 87%
    01:00 -8°C° 0 mm 2 mps 747 mmHg 88%
    02:00 -9°C° 0 mm 2 mps 746 mmHg 87%
    03:00 -9°C° 0 mm 2 mps 746 mmHg 87%
    04:00 -10°C° 0 mm 3 mps 745 mmHg 87%
    05:00 -10°C° 0 mm 3 mps 745 mmHg 86%
    06:00 -11°C° 0 mm 4 mps 745 mmHg 86%
    07:00 -10°C° 0 mm 4 mps 745 mmHg 85%
    08:00 -10°C° 0 mm 4 mps 744 mmHg 85%
    09:00 -10°C° 0 mm 5 mps 744 mmHg 84%
    10:00 -7°C° 0 mm 5 mps 743 mmHg 82%
    11:00 -5°C° 0 mm 5 mps 743 mmHg 81%
    12:00 -5°C° 0 mm 5 mps 742 mmHg 81%
    13:00 -4°C° 0 mm 6 mps 742 mmHg 82%
    14:00 -1°C° 0 mm 4 mps 741 mmHg 86%
    15:00 -2°C° 0 mm 5 mps 740 mmHg 87%
    16:00 -2°C° 0 mm 5 mps 740 mmHg 87%
    17:00 -4°C° 0 mm 6 mps 739 mmHg 88%
    18:00 -4°C° 0 mm 6 mps 738 mmHg 88%
    19:00 -3°C° 0 mm 6 mps 738 mmHg 87%
    20:00 -3°C° 0 mm 7 mps 737 mmHg 87%
    21:00 -3°C° 0 mm 7 mps 736 mmHg 89%
    22:00 -3°C° 0 mm 7 mps 736 mmHg 90%
    23:00 -2°C° 0 mm 7 mps 735 mmHg 92%

    Tomorrow, 20 February, Wednesday

    Time Temperature Precipitation Wind Pressure Humidity
    00:00 -2°C° 0 mm 6 mps 735 mmHg 93%
    01:00 -2°C° 0 mm 6 mps 734 mmHg 95%
    02:00 -1°C° 0 mm 5 mps 734 mmHg 96%
    03:00 -1°C° 0 mm 5 mps 733 mmHg 95%
    04:00 -1°C° 0 mm 5 mps 733 mmHg 95%
    05:00 -1°C° 0 mm 5 mps 733 mmHg 95%
    06:00 -1°C° 0 mm 5 mps 733 mmHg 95%
    07:00 -1°C° 0 mm 5 mps 733 mmHg 94%
    08:00 -1°C° 0 mm 5 mps 732 mmHg 94%
    09:00 -1°C° 0.1 mm 5 mps 732 mmHg 96%
    10:00 -1°C° 0.1 mm 5 mps 732 mmHg 97%
    11:00 -1°C° 0.1 mm 5 mps 732 mmHg 99%
    12:00 -2°C° 0.1 mm 6 mps 732 mmHg 98%
    13:00 -2°C° 0.1 mm 6 mps 732 mmHg 98%
    14:00 -2°C° 0.1 mm 6 mps 732 mmHg 97%
    15:00 -2°C° 0.1 mm 6 mps 732 mmHg 96%
    16:00 -1°C° 0.1 mm 6 mps 731 mmHg 94%
    17:00 -1°C° 0.1 mm 7 mps 731 mmHg 93%
    18:00 -2°C° 0.2 mm 7 mps 731 mmHg 92%
    19:00 -2°C° 0.2 mm 7 mps 731 mmHg 91%
    20:00 -2°C° 0.2 mm 7 mps 731 mmHg 91%
    21:00 -3°C° 0.2 mm 7 mps 731 mmHg 86%
    22:00 -5°C° 0.2 mm 6 mps 731 mmHg 82%
    23:00 -8°C° 0.2 mm 6 mps 731 mmHg 77%

    Day after tomorrow, 21 February, Thursday

    Time Temperature Precipitation Wind Pressure Humidity
    00:00 -8°C° 0 mm 6 mps 731 mmHg 79%
    01:00 -8°C° 0 mm 6 mps 732 mmHg 80%
    02:00 -8°C° 0 mm 6 mps 732 mmHg 82%
    03:00 -8°C° 0 mm 7 mps 733 mmHg 82%
    04:00 -8°C° 0 mm 7 mps 733 mmHg 82%
    05:00 -9°C° 0 mm 7 mps 733 mmHg 82%
    06:00 -9°C° 0 mm 7 mps 733 mmHg 81%
    07:00 -9°C° 0 mm 7 mps 734 mmHg 79%
    08:00 -11°C° 0 mm 7 mps 734 mmHg 78%
    09:00 -9°C° 0 mm 7 mps 735 mmHg 77%
    10:00 -10°C° 0 mm 8 mps 735 mmHg 77%
    11:00 -8°C° 0 mm 8 mps 736 mmHg 77%
    12:00 -8°C° 0 mm 8 mps 736 mmHg 76%
    13:00 -8°C° 0 mm 8 mps 737 mmHg 74%
    14:00 -8°C° 0 mm 8 mps 737 mmHg 73%
    15:00 -9°C° 0 mm 7 mps 737 mmHg 75%
    16:00 -9°C° 0 mm 6 mps 738 mmHg 76%
    17:00 -9°C° 0 mm 6 mps 738 mmHg 77%
    18:00 -10°C° 0 mm 5 mps 739 mmHg 78%
    19:00 -10°C° 0 mm 5 mps 739 mmHg 79%
    20:00 -11°C° 0 mm 5 mps 740 mmHg 80%
    21:00 -12°C° 0 mm 5 mps 740 mmHg 81%
    22:00 -11°C° 0 mm 4 mps 741 mmHg 81%
    23:00 -12°C° 0 mm 4 mps 741 mmHg 81%

    22 February, Friday

    Time Temperature Precipitation Wind Pressure Humidity
    00:00 -12°C° 0 mm 4 mps 742 mmHg 82%
    01:00 -14°C° 0 mm 4 mps 742 mmHg 82%
    02:00 -14°C° 0 mm 4 mps 743 mmHg 82%
    03:00 -14°C° 0 mm 4 mps 743 mmHg 81%
    04:00 -15°C° 0 mm 5 mps 743 mmHg 80%
    05:00 -15°C° 0 mm 5 mps 744 mmHg 80%
    06:00 -15°C° 0 mm 5 mps 745 mmHg 79%
    07:00 -16°C° 0 mm 6 mps 745 mmHg 78%
    08:00 -16°C° 0 mm 6 mps 746 mmHg 78%
    09:00 -15°C° 0 mm 7 mps 746 mmHg 75%
    10:00 -14°C° 0 mm 7 mps 747 mmHg 72%
    11:00 -13°C° 0 mm 8 mps 747 mmHg 68%
    12:00 -13°C° 0 mm 8 mps 747 mmHg 69%
    13:00 -13°C° 0 mm 8 mps 747 mmHg 69%
    14:00 -12°C° 0 mm 8 mps 747 mmHg 69%
    15:00 -12°C° 0 mm 8 mps 748 mmHg 71%
    16:00 -13°C° 0 mm 7 mps 748 mmHg 72%
    17:00 -13°C° 0 mm 7 mps 748 mmHg 74%
    18:00 -12°C° 0 mm 6 mps 748 mmHg 75%
    19:00 -12°C° 0 mm 6 mps 749 mmHg 77%
    20:00 -14°C° 0 mm 6 mps 749 mmHg 78%
    21:00 -14°C° 0 mm 6 mps 750 mmHg 79%
    22:00 -13°C° 0 mm 5 mps 750 mmHg 80%
    23:00 -13°C° 0 mm 5 mps 750 mmHg 80%

    23 February, Saturday

    Time Temperature Precipitation Wind Pressure Humidity
    00:00 -14°C° 0 mm 4 mps 751 mmHg 81%
    01:00 -15°C° 0 mm 4 mps 751 mmHg 81%
    02:00 -15°C° 0 mm 4 mps 751 mmHg 82%
    03:00 -15°C° 0 mm 4 mps 751 mmHg 83%
    04:00 -16°C° 0 mm 4 mps 752 mmHg 85%
    05:00 -16°C° 0 mm 4 mps 752 mmHg 86%
    06:00 -16°C° 0 mm 4 mps 752 mmHg 87%
    07:00 -16°C° 0 mm 4 mps 752 mmHg 87%
    08:00 -16°C° 0 mm 4 mps 752 mmHg 88%
    09:00 -15°C° 0 mm 4 mps 753 mmHg 86%
    10:00 -15°C° 0 mm 4 mps 753 mmHg 83%
    11:00 -14°C° 0 mm 4 mps 753 mmHg 81%
    12:00 -12°C° 0 mm 4 mps 753 mmHg 79%
    13:00 -11°C° 0 mm 4 mps 752 mmHg 78%
    14:00 -11°C° 0 mm 4 mps 752 mmHg 76%
    15:00 -10°C° 0 mm 3 mps 752 mmHg 78%
    16:00 -12°C° 0 mm 3 mps 752 mmHg 80%
    17:00 -12°C° 0 mm 3 mps 752 mmHg 82%
    18:00 -10°C° 0 mm 2 mps 752 mmHg 83%
    19:00 -10°C° 0 mm 2 mps 752 mmHg 84%
    20:00 -10°C° 0 mm 2 mps 751 mmHg 85%
    21:00 -10°C° 0 mm 2 mps 751 mmHg 85%
    22:00 -9°C° 0 mm 1 mps 752 mmHg 85%
    23:00 -9°C° 0 mm 1 mps 752 mmHg 85%

    24 February, Sunday

    Time Temperature Precipitation Wind Pressure Humidity
    00:00 -9°C° 0 mm 1 mps 752 mmHg 85%
    01:00 -9°C° 0 mm 1 mps 752 mmHg 84%
    02:00 -9°C° 0 mm 1 mps 752 mmHg 84%
    03:00 -9°C° 0 mm 1 mps 752 mmHg 84%
    04:00 -9°C° 0 mm 1 mps 752 mmHg 84%
    05:00 -9°C° 0 mm 1 mps 752 mmHg 84%
    06:00 -9°C° 0 mm 1 mps 752 mmHg 83%
    07:00 -9°C° 0 mm 1 mps 752 mmHg 83%
    08:00 -9°C° 0 mm 1 mps 753 mmHg 83%
    09:00 -8°C° 0 mm 1 mps 753 mmHg 80%
    10:00 -7°C° 0 mm 1 mps 753 mmHg 77%
    11:00 -6°C° 0 mm 1 mps 753 mmHg 74%
    12:00 -4°C° 0 mm 1 mps 753 mmHg 75%
    13:00 -4°C° 0 mm 1 mps 753 mmHg 76%
    14:00 -3°C° 0 mm 1 mps 753 mmHg 77%
    15:00 -5°C° 0 mm 2 mps 753 mmHg 81%
    16:00 -6°C° 0 mm 2 mps 753 mmHg 84%
    17:00 -6°C° 0 mm 2 mps 753 mmHg 87%
    18:00 -6°C° 0 mm 2 mps 753 mmHg 89%
    19:00 -6°C° 0 mm 2 mps 753 mmHg 90%
    20:00 -6°C° 0 mm 2 mps 754 mmHg 92%
    21:00 -6°C° 0 mm 2 mps 753 mmHg 92%
    22:00 -6°C° 0 mm 2 mps 753 mmHg 92%
    23:00 -4°C° 0 mm 1 mps 753 mmHg 93%
    Show more